Find Siwei Gaojing 1-02

NORAD ID: 52322 Int'l Des: 2022-043 Owner: SIWEI Country: CN operational
LEOCIRCULARRETROGRADESSO

实时位置

正在加载3D地球...

关于 Siwei Gaojing 1-02

正在加载描述...

即将过境

Passes for default location (London). Set your location on the main map for personalized predictions.

高度历史

Loading altitude history...

两行轨道根数

1 52322U 22043C 26105.21478297 .00002781 00000-0 14850-3 0 9998
2 52322 97.3428 180.0523 0002381 147.6599 212.4780 15.15913249220034
Epoch: Apr 15, 2026 • Age: 6 hours

当前状态

高度 528.1 km
速度 7.60 km/s
星下点 -28.27°S, 9.63°W
发射日期 Apr 29, 2022
运行时间 3.9 years
类型 other

技术详情

分类 Payload
质量 540.00 kg
干质量 500.00 kg
总质量 540.00 kg
长度 0.50 m
直径 0.50 m
跨度 0.50 m
形状 Box
制造商 DFHZ
平台类型 Siwei
阶段状态 In Orbit
所有者/国家 SIWEI/CN

Most Searched